Location: Fish Springs
(37.0754°N, 118.2540°W)
Time: 17:39:12
(UTC+00:00)

N. Korean satellite - Visible Passes

Search period start: 21 January 2022 00:00
Search period end: 31 January 2022 00:00
Orbit: 447 x 491 km, 97.3° (Epoch: 21 January)

Date Brightness Start Highest point End Pass type
(mag) Time Alt. Az. Time Alt. Az. Time Alt. Az.
21 Jan 9.3 12:59:22 10° NNE 13:06:46 - S 12:59:28 11° NNE visible
22 Jan9.712:37:21SSE12:37:21SSE12:30:22NEvisible
22 Jan 8.9 14:11:24 - SW 14:11:24 - SW 14:04:25 10° NNW visible
23 Jan10.312:07:55SE12:07:55SE12:01:17NEvisible
23 Jan 8.5 13:34:24 10° N 13:41:58 - SW 13:35:21 16° NNW visible
24 Jan 8.5 13:05:01 10° NNE 13:12:30 - SSW 13:06:15 20° NNE visible
25 Jan 9.1 12:36:08 10° NNE 12:43:02 - SSE 12:37:10 17° NE visible
25 Jan 8.6 14:10:27 10° NW 14:11:14 12° NW 14:11:14 12° NW visible
26 Jan 10.0 12:13:31 - SE 12:13:31 - SE 12:08:06 10° ENE visible
26 Jan 7.8 13:40:05 10° N 13:47:33 - SW 13:42:10 25° NW visible
27 Jan 7.2 13:10:33 10° N 13:18:01 - SSW 13:13:06 43° N visible
28 Jan 8.2 12:41:31 10° NNE 12:48:25 10° S 12:44:03 32° ENE visible
28 Jan 8.5 14:16:29 10° NW 14:17:41 11° WNW 14:18:07 11° WNW visible
29 Jan 9.5 12:13:14 10° NE 12:18:48 - SE 12:15:01 16° E visible
29 Jan 7.6 13:45:40 10° NNW 13:48:42 25° WNW 13:49:06 25° W visible
30 Jan 6.4 13:15:59 10° N 13:19:35 64° WNW 13:20:07 54° WSW visible
